Zurück zum Katalog

STARLINK-4670

AktivKommunikationVLEO
NORAD 53744·PAYLOAD·🇺🇸 United States

Gestartet Sep 5, 2022 von Cape Canaveral Space Force Station

Loading…

Nächste Überflüge (nächste 24 Stunden)

TLE

AktuellSource: CelesTrak SupGP

Epoche: Sep 15, 2026, 02:31 UTC

1 53744C 22107AW  26258.10534722  .00040250  00000+0  12943-2 0  2581
2 53744  53.1584 124.8952 0001361  79.9894  39.6295 15.31681971    16

Verfolge STARLINK-4670 in Echtzeit mit AllMySat

Download on the App Store